Year,Month,Day,Hour,Minute,Value (Times are PST for temperature in C)
2018,08,08,00,00,28.30
2018,08,08,00,01,28.30
2018,08,08,00,02,28.30
2018,08,08,00,03,28.20
2018,08,08,00,04,28.20
2018,08,08,00,05,28.10
2018,08,08,00,06,28.10
2018,08,08,00,07,28.00
2018,08,08,00,08,27.90
2018,08,08,00,09,27.90
2018,08,08,00,10,27.80
2018,08,08,00,11,27.80
2018,08,08,00,12,27.80
2018,08,08,00,13,27.70
2018,08,08,00,14,27.70
2018,08,08,00,15,27.70
2018,08,08,00,16,27.70
2018,08,08,00,17,27.60
2018,08,08,00,18,27.60
2018,08,08,00,19,27.50
2018,08,08,00,20,27.50
2018,08,08,00,21,27.40
2018,08,08,00,22,27.40
2018,08,08,00,23,27.40
2018,08,08,00,24,27.30
2018,08,08,00,25,27.30
2018,08,08,00,26,27.30
2018,08,08,00,27,27.20
2018,08,08,00,28,27.20
2018,08,08,00,29,27.20
2018,08,08,00,30,27.10
2018,08,08,00,31,27.10
2018,08,08,00,32,27.00
2018,08,08,00,33,27.00
2018,08,08,00,34,26.90
2018,08,08,00,35,26.90
2018,08,08,00,36,26.80
2018,08,08,00,37,26.80
2018,08,08,00,38,26.80
2018,08,08,00,39,26.70
2018,08,08,00,40,26.70
2018,08,08,00,41,26.60
2018,08,08,00,42,26.60
2018,08,08,00,43,26.50
2018,08,08,00,44,26.50
2018,08,08,00,45,26.40
2018,08,08,00,46,26.40
2018,08,08,00,47,26.40
2018,08,08,00,48,26.30
2018,08,08,00,49,26.30
2018,08,08,00,50,26.30
2018,08,08,00,51,26.30
2018,08,08,00,52,26.30
2018,08,08,00,53,26.30
2018,08,08,00,54,26.30
2018,08,08,00,55,26.30
2018,08,08,00,56,26.30
2018,08,08,00,57,26.30
2018,08,08,00,58,26.30
2018,08,08,00,59,26.30
2018,08,08,01,00,26.20
2018,08,08,01,01,26.20
2018,08,08,01,02,26.20
2018,08,08,01,03,26.20
2018,08,08,01,04,26.20
2018,08,08,01,05,26.20
2018,08,08,01,06,26.20
2018,08,08,01,07,26.20
2018,08,08,01,08,26.20
2018,08,08,01,09,26.20
2018,08,08,01,10,26.20
2018,08,08,01,11,26.20
2018,08,08,01,12,26.20
2018,08,08,01,13,26.10
2018,08,08,01,14,26.10
2018,08,08,01,15,26.10
2018,08,08,01,16,26.00
2018,08,08,01,17,26.00
2018,08,08,01,18,25.90
2018,08,08,01,19,25.90
2018,08,08,01,20,25.90
2018,08,08,01,21,25.90
2018,08,08,01,22,25.90
2018,08,08,01,23,25.90
2018,08,08,01,24,25.90
2018,08,08,01,25,25.90
2018,08,08,01,26,25.90
2018,08,08,01,27,25.90
2018,08,08,01,28,25.90
2018,08,08,01,29,25.90
2018,08,08,01,30,25.90
2018,08,08,01,31,25.90
2018,08,08,01,32,25.90
2018,08,08,01,33,25.90
2018,08,08,01,34,25.90
2018,08,08,01,35,25.90
2018,08,08,01,36,25.90
2018,08,08,01,37,25.90
2018,08,08,01,38,25.90
2018,08,08,01,39,25.90
2018,08,08,01,40,25.90
2018,08,08,01,41,25.90
2018,08,08,01,42,25.90
2018,08,08,01,43,25.90
2018,08,08,01,44,25.90
2018,08,08,01,45,25.90
2018,08,08,01,46,25.90
2018,08,08,01,47,25.90
2018,08,08,01,48,25.90
2018,08,08,01,49,25.90
2018,08,08,01,50,25.90
2018,08,08,01,51,25.90
2018,08,08,01,52,25.90
2018,08,08,01,53,25.90
2018,08,08,01,54,25.90
2018,08,08,01,55,25.90
2018,08,08,01,56,25.90
2018,08,08,01,57,25.90
2018,08,08,01,58,25.90
2018,08,08,01,59,25.90
2018,08,08,02,00,25.90
2018,08,08,02,01,25.90
2018,08,08,02,02,25.90
2018,08,08,02,03,25.90
2018,08,08,02,04,25.90
2018,08,08,02,05,25.90
2018,08,08,02,06,25.90
2018,08,08,02,07,25.80
2018,08,08,02,08,25.80
2018,08,08,02,09,25.80
2018,08,08,02,10,25.80
2018,08,08,02,11,25.80
2018,08,08,02,12,25.70
2018,08,08,02,13,25.70
2018,08,08,02,14,25.70
2018,08,08,02,15,25.70
2018,08,08,02,16,25.70
2018,08,08,02,17,25.70
2018,08,08,02,18,25.60
2018,08,08,02,19,25.60
2018,08,08,02,20,25.60
2018,08,08,02,21,25.50
2018,08,08,02,22,25.50
2018,08,08,02,23,25.50
2018,08,08,02,24,25.40
2018,08,08,02,25,25.30
2018,08,08,02,26,25.30
2018,08,08,02,27,25.20
2018,08,08,02,28,25.20
2018,08,08,02,29,25.20
2018,08,08,02,30,25.10
2018,08,08,02,31,25.10
2018,08,08,02,32,25.10
2018,08,08,02,33,25.10
2018,08,08,02,34,25.10
2018,08,08,02,35,25.10
2018,08,08,02,36,25.20
2018,08,08,02,37,25.20
2018,08,08,02,38,25.20
2018,08,08,02,39,25.20
2018,08,08,02,40,25.20
2018,08,08,02,41,25.20
2018,08,08,02,42,25.30
2018,08,08,02,43,25.30
2018,08,08,02,44,25.30
2018,08,08,02,45,25.30
2018,08,08,02,46,25.30
2018,08,08,02,47,25.30
2018,08,08,02,48,25.30
2018,08,08,02,49,25.30
2018,08,08,02,50,25.30
2018,08,08,02,51,25.30
2018,08,08,02,52,25.30
2018,08,08,02,53,25.30
2018,08,08,02,54,25.30
2018,08,08,02,55,25.30
2018,08,08,02,56,25.20
2018,08,08,02,57,25.20
2018,08,08,02,58,25.20
2018,08,08,02,59,25.10
2018,08,08,03,00,25.10
2018,08,08,03,01,25.10
2018,08,08,03,02,25.10
2018,08,08,03,03,25.00
2018,08,08,03,04,25.00
2018,08,08,03,05,24.90
2018,08,08,03,06,24.90
2018,08,08,03,07,24.90
2018,08,08,03,08,24.80
2018,08,08,03,09,24.80
2018,08,08,03,10,24.80
2018,08,08,03,11,24.70
2018,08,08,03,12,24.70
2018,08,08,03,13,24.70
2018,08,08,03,14,24.60
2018,08,08,03,15,24.60
2018,08,08,03,16,24.60
2018,08,08,03,17,24.50
2018,08,08,03,18,24.50
2018,08,08,03,19,24.40
2018,08,08,03,20,24.40
2018,08,08,03,21,24.40
2018,08,08,03,22,24.30
2018,08,08,03,23,24.30
2018,08,08,03,24,24.30
2018,08,08,03,25,24.30
2018,08,08,03,26,24.20
2018,08,08,03,27,24.20
2018,08,08,03,28,24.20
2018,08,08,03,29,24.20
2018,08,08,03,30,24.10
2018,08,08,03,31,24.10
2018,08,08,03,32,24.10
2018,08,08,03,33,24.10
2018,08,08,03,34,24.00
2018,08,08,03,35,24.00
2018,08,08,03,36,24.00
2018,08,08,03,37,24.00
2018,08,08,03,38,24.00
2018,08,08,03,39,24.00
2018,08,08,03,40,24.00
2018,08,08,03,41,24.00
2018,08,08,03,42,24.00
2018,08,08,03,43,24.00
2018,08,08,03,44,24.00
2018,08,08,03,45,24.00
2018,08,08,03,46,23.90
2018,08,08,03,47,23.90
2018,08,08,03,48,23.90
2018,08,08,03,49,23.90
2018,08,08,03,50,23.90
2018,08,08,03,51,23.80
2018,08,08,03,52,23.80
2018,08,08,03,53,23.80
2018,08,08,03,54,23.80
2018,08,08,03,55,23.80
2018,08,08,03,56,23.80
2018,08,08,03,57,23.80
2018,08,08,03,58,23.80
2018,08,08,03,59,23.80
2018,08,08,04,00,23.80
2018,08,08,04,01,23.80
2018,08,08,04,02,23.80
2018,08,08,04,03,23.70
2018,08,08,04,04,23.70
2018,08,08,04,05,23.70
2018,08,08,04,06,23.70
2018,08,08,04,07,23.70
2018,08,08,04,08,23.70
2018,08,08,04,09,23.70
2018,08,08,04,10,23.70
2018,08,08,04,11,23.70
2018,08,08,04,12,23.70
2018,08,08,04,13,23.70
2018,08,08,04,14,23.70
2018,08,08,04,15,23.60
2018,08,08,04,16,23.60
2018,08,08,04,17,23.60
2018,08,08,04,18,23.60
2018,08,08,04,19,23.60
2018,08,08,04,20,23.60
2018,08,08,04,21,23.50
2018,08,08,04,22,23.50
2018,08,08,04,23,23.50
2018,08,08,04,24,23.40
2018,08,08,04,25,23.40
2018,08,08,04,26,23.40
2018,08,08,04,27,23.40
2018,08,08,04,28,23.30
2018,08,08,04,29,23.30
2018,08,08,04,30,23.30
2018,08,08,04,31,23.30
2018,08,08,04,32,23.30
2018,08,08,04,33,23.30
2018,08,08,04,34,23.30
2018,08,08,04,35,23.30
2018,08,08,04,36,23.30
2018,08,08,04,37,23.30
2018,08,08,04,38,23.30
2018,08,08,04,39,23.30
2018,08,08,04,40,23.30
2018,08,08,04,41,23.30
2018,08,08,04,42,23.30
2018,08,08,04,43,23.30
2018,08,08,04,44,23.30
2018,08,08,04,45,23.30
2018,08,08,04,46,23.30
2018,08,08,04,47,23.30
2018,08,08,04,48,23.30
2018,08,08,04,49,23.30
2018,08,08,04,50,23.30
2018,08,08,04,51,23.30
2018,08,08,04,52,23.20
2018,08,08,04,53,23.20
2018,08,08,04,54,23.20
2018,08,08,04,55,23.10
2018,08,08,04,56,23.10
2018,08,08,04,57,23.10
2018,08,08,04,58,23.10
2018,08,08,04,59,23.10
2018,08,08,05,00,23.10
2018,08,08,05,01,23.10
2018,08,08,05,02,23.10
2018,08,08,05,03,23.10
2018,08,08,05,04,23.10
2018,08,08,05,05,23.10
2018,08,08,05,06,23.10
2018,08,08,05,07,23.10
2018,08,08,05,08,23.10
2018,08,08,05,09,23.10
2018,08,08,05,10,23.20
2018,08,08,05,11,23.20
2018,08,08,05,12,23.20
2018,08,08,05,13,23.20
2018,08,08,05,14,23.20
2018,08,08,05,15,23.10
2018,08,08,05,16,23.10
2018,08,08,05,17,23.10
2018,08,08,05,18,23.20
2018,08,08,05,19,23.20
2018,08,08,05,20,23.20
2018,08,08,05,21,23.20
2018,08,08,05,22,23.10
2018,08,08,05,23,23.10
2018,08,08,05,24,23.10
2018,08,08,05,25,23.10
2018,08,08,05,26,23.00
2018,08,08,05,27,23.00
2018,08,08,05,28,23.00
2018,08,08,05,29,22.90
2018,08,08,05,30,22.90
2018,08,08,05,31,22.90
2018,08,08,05,32,22.90
2018,08,08,05,33,22.80
2018,08,08,05,34,22.80
2018,08,08,05,35,22.80
2018,08,08,05,36,22.80
2018,08,08,05,37,22.80
2018,08,08,05,38,22.80
2018,08,08,05,39,22.80
2018,08,08,05,40,22.80
2018,08,08,05,41,22.70
2018,08,08,05,42,22.70
2018,08,08,05,43,22.70
2018,08,08,05,44,22.70
2018,08,08,05,45,22.70
2018,08,08,05,46,22.60
2018,08,08,05,47,22.60
2018,08,08,05,48,22.60
2018,08,08,05,49,22.60
2018,08,08,05,50,22.60
2018,08,08,05,51,22.60
2018,08,08,05,52,22.50
2018,08,08,05,53,22.50
2018,08,08,05,54,22.50
2018,08,08,05,55,22.50
2018,08,08,05,56,22.50
2018,08,08,05,57,22.50
2018,08,08,05,58,22.50
2018,08,08,05,59,22.50
2018,08,08,06,00,22.50
2018,08,08,06,01,22.50
2018,08,08,06,02,22.50
2018,08,08,06,03,22.50
2018,08,08,06,04,22.50
2018,08,08,06,05,22.50
2018,08,08,06,06,22.50
2018,08,08,06,07,22.50
2018,08,08,06,08,22.50
2018,08,08,06,09,22.50
2018,08,08,06,10,22.50
2018,08,08,06,11,22.50
2018,08,08,06,12,22.50
2018,08,08,06,13,22.50
2018,08,08,06,14,22.50
2018,08,08,06,15,22.50
2018,08,08,06,16,22.60
2018,08,08,06,17,22.60
2018,08,08,06,18,22.60
2018,08,08,06,19,22.60
2018,08,08,06,20,22.60
2018,08,08,06,21,22.60
2018,08,08,06,22,22.60
2018,08,08,06,23,22.60
2018,08,08,06,24,22.70
2018,08,08,06,25,22.70
2018,08,08,06,26,22.70
2018,08,08,06,27,22.70
2018,08,08,06,28,22.80
2018,08,08,06,29,22.80
2018,08,08,06,30,22.80
2018,08,08,06,31,22.80
2018,08,08,06,32,22.80
2018,08,08,06,33,22.80
2018,08,08,06,34,22.80
2018,08,08,06,35,22.80
2018,08,08,06,36,22.80
2018,08,08,06,37,22.90
2018,08,08,06,38,22.90
2018,08,08,06,39,22.90
2018,08,08,06,40,22.90
2018,08,08,06,41,22.90
2018,08,08,06,42,22.90
2018,08,08,06,43,22.90
2018,08,08,06,44,22.90
2018,08,08,06,45,23.00
2018,08,08,06,46,23.00
2018,08,08,06,47,23.00
2018,08,08,06,48,23.00
2018,08,08,06,49,23.00
2018,08,08,06,50,23.10
2018,08,08,06,51,23.10
2018,08,08,06,52,23.10
2018,08,08,06,53,23.10
2018,08,08,06,54,23.10
2018,08,08,06,55,23.10
2018,08,08,06,56,23.10
2018,08,08,06,57,23.20
2018,08,08,06,58,23.20
2018,08,08,06,59,23.20
2018,08,08,07,00,23.20
2018,08,08,07,01,23.30
2018,08,08,07,02,23.30
2018,08,08,07,03,23.30
2018,08,08,07,04,23.40
2018,08,08,07,05,23.40
2018,08,08,07,06,23.40
2018,08,08,07,07,23.40
2018,08,08,07,08,23.50
2018,08,08,07,09,23.50
2018,08,08,07,10,23.60
2018,08,08,07,11,23.60
2018,08,08,07,12,23.60
2018,08,08,07,13,23.60
2018,08,08,07,14,23.60
2018,08,08,07,15,23.70
2018,08,08,07,16,23.70
2018,08,08,07,17,23.70
2018,08,08,07,18,23.70
2018,08,08,07,19,23.70
2018,08,08,07,20,23.80
2018,08,08,07,21,23.80
2018,08,08,07,22,23.80
2018,08,08,07,23,23.80
2018,08,08,07,24,23.90
2018,08,08,07,25,23.90
2018,08,08,07,26,23.90
2018,08,08,07,27,24.00
2018,08,08,07,28,24.00
2018,08,08,07,29,24.00
2018,08,08,07,30,24.00
2018,08,08,07,31,24.10
2018,08,08,07,32,24.10
2018,08,08,07,33,24.10
2018,08,08,07,34,24.10
2018,08,08,07,35,24.10
2018,08,08,07,36,24.10
2018,08,08,07,37,24.10
2018,08,08,07,38,24.20
2018,08,08,07,39,24.20
2018,08,08,07,40,24.20
2018,08,08,07,41,24.30
2018,08,08,07,42,24.30
2018,08,08,07,43,24.30
2018,08,08,07,44,24.30
2018,08,08,07,45,24.40
2018,08,08,07,46,24.30
2018,08,08,07,47,24.30
2018,08,08,07,48,24.30
2018,08,08,07,49,24.20
2018,08,08,07,50,24.20
2018,08,08,07,51,24.10
2018,08,08,07,52,24.00
2018,08,08,07,53,24.00
2018,08,08,07,54,23.90
2018,08,08,07,55,23.80
2018,08,08,07,56,23.80
2018,08,08,07,57,23.70
2018,08,08,07,58,23.70
2018,08,08,07,59,23.70
2018,08,08,08,00,23.60
2018,08,08,08,01,23.60
2018,08,08,08,02,23.50
2018,08,08,08,03,23.50
2018,08,08,08,04,23.40
2018,08,08,08,05,23.40
2018,08,08,08,06,23.30
2018,08,08,08,07,23.20
2018,08,08,08,08,23.10
2018,08,08,08,09,23.00
2018,08,08,08,10,23.00
2018,08,08,08,11,22.90
2018,08,08,08,12,22.90
2018,08,08,08,13,22.90
2018,08,08,08,14,23.00
2018,08,08,08,15,23.00
2018,08,08,08,16,23.00
2018,08,08,08,17,23.10
2018,08,08,08,18,23.10
2018,08,08,08,19,23.20
2018,08,08,08,20,23.20
2018,08,08,08,21,23.20
2018,08,08,08,22,23.20
2018,08,08,08,23,23.20
2018,08,08,08,24,23.30
2018,08,08,08,25,23.30
2018,08,08,08,26,23.30
2018,08,08,08,27,23.30
2018,08,08,08,28,23.30
2018,08,08,08,29,23.40
2018,08,08,08,30,23.40
2018,08,08,08,31,23.40
2018,08,08,08,32,23.50
2018,08,08,08,33,23.60
2018,08,08,08,34,23.60
2018,08,08,08,35,23.60
2018,08,08,08,36,23.60
2018,08,08,08,37,23.60
2018,08,08,08,38,23.60
2018,08,08,08,39,23.60
2018,08,08,08,40,23.60
2018,08,08,08,41,23.60
2018,08,08,08,42,23.60
2018,08,08,08,43,23.60
2018,08,08,08,44,23.60
2018,08,08,08,45,23.60
2018,08,08,08,46,23.50
2018,08,08,08,47,23.40
2018,08,08,08,48,23.30
2018,08,08,08,49,23.20
2018,08,08,08,50,23.20
2018,08,08,08,51,23.20
2018,08,08,08,52,23.10
2018,08,08,08,53,23.10
2018,08,08,08,54,23.10
2018,08,08,08,55,23.00
2018,08,08,08,56,23.00
2018,08,08,08,57,22.90
2018,08,08,08,58,22.90
2018,08,08,08,59,22.80
2018,08,08,09,00,22.80
2018,08,08,09,01,22.80
2018,08,08,09,02,22.80
2018,08,08,09,03,22.80
2018,08,08,09,04,22.90
2018,08,08,09,05,22.80
2018,08,08,09,06,22.80
2018,08,08,09,07,22.80
2018,08,08,09,08,22.80
2018,08,08,09,09,22.80
2018,08,08,09,10,22.80
2018,08,08,09,11,22.70
2018,08,08,09,12,22.70
2018,08,08,09,13,22.70
2018,08,08,09,14,22.70
2018,08,08,09,15,22.70
2018,08,08,09,16,22.80
2018,08,08,09,17,22.80
2018,08,08,09,18,22.80
2018,08,08,09,19,22.70
2018,08,08,09,20,22.60
2018,08,08,09,21,22.60
2018,08,08,09,22,22.60
2018,08,08,09,23,22.50
2018,08,08,09,24,22.40
2018,08,08,09,25,22.40
2018,08,08,09,26,22.50
2018,08,08,09,27,22.50
2018,08,08,09,28,22.50
2018,08,08,09,29,22.60
2018,08,08,09,30,22.60
2018,08,08,09,31,22.60
2018,08,08,09,32,22.60
2018,08,08,09,33,22.70
2018,08,08,09,34,22.70
2018,08,08,09,35,22.80
2018,08,08,09,36,22.80
2018,08,08,09,37,22.80
2018,08,08,09,38,22.90
2018,08,08,09,39,22.90
2018,08,08,09,40,22.90
2018,08,08,09,41,22.90
2018,08,08,09,42,22.90
2018,08,08,09,43,22.90
2018,08,08,09,44,22.90
2018,08,08,09,45,22.90
2018,08,08,09,46,22.90
2018,08,08,09,47,22.80
2018,08,08,09,48,22.80
2018,08,08,09,49,22.80
2018,08,08,09,50,22.80
2018,08,08,09,51,22.90
2018,08,08,09,52,22.90
2018,08,08,09,53,23.00
2018,08,08,09,54,23.00
2018,08,08,09,55,23.00
2018,08,08,09,56,23.00
2018,08,08,09,57,22.90
2018,08,08,09,58,22.80
2018,08,08,09,59,22.70
2018,08,08,10,00,22.60
2018,08,08,10,01,22.60
2018,08,08,10,02,22.50
2018,08,08,10,03,22.50
2018,08,08,10,04,22.40
2018,08,08,10,05,22.40
2018,08,08,10,06,22.40
2018,08,08,10,07,22.40
2018,08,08,10,08,22.50
2018,08,08,10,09,22.50
2018,08,08,10,10,22.50
2018,08,08,10,11,22.40
2018,08,08,10,12,22.40
2018,08,08,10,13,22.30
2018,08,08,10,14,22.20
2018,08,08,10,15,22.20
2018,08,08,10,16,22.20
2018,08,08,10,17,22.20
2018,08,08,10,18,22.30
2018,08,08,10,19,22.30
2018,08,08,10,20,22.40
2018,08,08,10,21,22.40
2018,08,08,10,22,22.40
2018,08,08,10,23,22.40
2018,08,08,10,24,22.40
2018,08,08,10,25,22.50
2018,08,08,10,26,22.60
2018,08,08,10,27,22.70
2018,08,08,10,28,22.70
2018,08,08,10,29,22.70
2018,08,08,10,30,22.80
2018,08,08,10,31,22.80
2018,08,08,10,32,22.80
2018,08,08,10,33,22.80
2018,08,08,10,34,22.80
2018,08,08,10,35,22.80
2018,08,08,10,36,22.90
2018,08,08,10,37,22.90
2018,08,08,10,38,22.90
2018,08,08,10,39,22.90
2018,08,08,10,40,23.00
2018,08,08,10,41,23.10
2018,08,08,10,42,23.20
2018,08,08,10,43,23.10
2018,08,08,10,44,23.10
2018,08,08,10,45,23.20
2018,08,08,10,46,23.20
2018,08,08,10,47,23.20
2018,08,08,10,48,23.20
2018,08,08,10,49,23.20
2018,08,08,10,50,23.20
2018,08,08,10,51,23.20
2018,08,08,10,52,23.20
2018,08,08,10,53,23.10
2018,08,08,10,54,23.10
2018,08,08,10,55,23.10
2018,08,08,10,56,23.10
2018,08,08,10,57,23.00
2018,08,08,10,58,23.00
2018,08,08,10,59,22.90
2018,08,08,11,00,22.80
2018,08,08,11,01,22.80
2018,08,08,11,02,22.90
2018,08,08,11,03,22.90
2018,08,08,11,04,23.00
2018,08,08,11,05,23.00
2018,08,08,11,06,23.00
2018,08,08,11,07,23.10
2018,08,08,11,08,23.20
2018,08,08,11,09,23.20
2018,08,08,11,10,23.20
2018,08,08,11,11,23.20
2018,08,08,11,12,23.30
2018,08,08,11,13,23.30
2018,08,08,11,14,23.40
2018,08,08,11,15,23.50
2018,08,08,11,16,23.60
2018,08,08,11,17,23.60
2018,08,08,11,18,23.60
2018,08,08,11,19,23.60
2018,08,08,11,20,23.60
2018,08,08,11,21,23.70
2018,08,08,11,22,23.70
2018,08,08,11,23,23.70
2018,08,08,11,24,23.80
2018,08,08,11,25,23.70
2018,08,08,11,26,23.60
2018,08,08,11,27,23.60
2018,08,08,11,28,23.70
2018,08,08,11,29,23.60
2018,08,08,11,30,23.60
2018,08,08,11,31,23.60
2018,08,08,11,32,23.50
2018,08,08,11,33,23.50
2018,08,08,11,34,23.40
2018,08,08,11,35,23.40
2018,08,08,11,36,23.40
2018,08,08,11,37,23.50
2018,08,08,11,38,23.50
2018,08,08,11,39,23.60
2018,08,08,11,40,23.60
2018,08,08,11,41,23.60
2018,08,08,11,42,23.70
2018,08,08,11,43,23.60
2018,08,08,11,44,23.60
2018,08,08,11,45,23.60
2018,08,08,11,46,23.60
2018,08,08,11,47,23.60
2018,08,08,11,48,23.70
2018,08,08,11,49,23.60
2018,08,08,11,50,23.60
2018,08,08,11,51,23.60
2018,08,08,11,52,23.60
2018,08,08,11,53,23.70
2018,08,08,11,54,23.70
2018,08,08,11,55,23.70
2018,08,08,11,56,23.80
2018,08,08,11,57,23.80
2018,08,08,11,58,23.80
2018,08,08,11,59,23.70
2018,08,08,12,00,23.70
2018,08,08,12,01,23.70
2018,08,08,12,02,23.70
2018,08,08,12,03,23.80
2018,08,08,12,04,23.80
2018,08,08,12,05,23.90
2018,08,08,12,06,23.90
2018,08,08,12,07,23.90
2018,08,08,12,08,24.00
2018,08,08,12,09,24.00
2018,08,08,12,10,24.00
2018,08,08,12,11,24.10
2018,08,08,12,12,24.00
2018,08,08,12,13,24.00
2018,08,08,12,14,23.90
2018,08,08,12,15,23.90
2018,08,08,12,16,23.90
2018,08,08,12,17,23.90
2018,08,08,12,18,24.00
2018,08,08,12,19,24.10
2018,08,08,12,20,24.10
2018,08,08,12,21,24.20
2018,08,08,12,22,24.30
2018,08,08,12,23,24.30
2018,08,08,12,24,24.40
2018,08,08,12,25,24.40
2018,08,08,12,26,24.40
2018,08,08,12,27,24.50
2018,08,08,12,28,24.50
2018,08,08,12,29,24.60
2018,08,08,12,30,24.60
2018,08,08,12,31,24.60
2018,08,08,12,32,24.60
2018,08,08,12,33,24.60
2018,08,08,12,34,24.60
2018,08,08,12,35,24.60
2018,08,08,12,36,24.70
2018,08,08,12,37,24.70
2018,08,08,12,38,24.80
2018,08,08,12,39,24.80
2018,08,08,12,40,24.80
2018,08,08,12,41,24.80
2018,08,08,12,42,24.80
2018,08,08,12,43,24.90
2018,08,08,12,44,24.90
2018,08,08,12,45,25.00
2018,08,08,12,46,25.00
2018,08,08,12,47,25.20
2018,08,08,12,48,25.30
2018,08,08,12,49,25.40
2018,08,08,12,50,25.40
2018,08,08,12,51,25.40
2018,08,08,12,52,25.40
2018,08,08,12,53,25.40
2018,08,08,12,54,25.40
2018,08,08,12,55,25.40
2018,08,08,12,56,25.40
2018,08,08,12,57,25.40
2018,08,08,12,58,25.50
2018,08,08,12,59,25.50
2018,08,08,13,00,25.50
2018,08,08,13,01,25.50
2018,08,08,13,02,25.40
2018,08,08,13,03,25.50
2018,08,08,13,04,25.60
2018,08,08,13,05,25.60
2018,08,08,13,06,25.60
2018,08,08,13,07,25.70
2018,08,08,13,08,25.80
2018,08,08,13,09,25.90
2018,08,08,13,10,25.90
2018,08,08,13,11,25.90
2018,08,08,13,12,25.90
2018,08,08,13,13,26.00
2018,08,08,13,14,26.10
2018,08,08,13,15,26.20
2018,08,08,13,16,26.20
2018,08,08,13,17,26.30
2018,08,08,13,18,26.30
2018,08,08,13,19,26.30
2018,08,08,13,20,26.30
2018,08,08,13,21,26.20
2018,08,08,13,22,26.20
2018,08,08,13,23,26.20
2018,08,08,13,24,26.30
2018,08,08,13,25,26.30
2018,08,08,13,26,26.40
2018,08,08,13,27,26.40
2018,08,08,13,28,26.40
2018,08,08,13,29,26.40
2018,08,08,13,30,26.40
2018,08,08,13,31,26.40
2018,08,08,13,32,26.50
2018,08,08,13,33,26.60
2018,08,08,13,34,26.50
2018,08,08,13,35,26.40
2018,08,08,13,36,26.30
2018,08,08,13,37,26.30
2018,08,08,13,38,26.20
2018,08,08,13,39,26.20
2018,08,08,13,40,26.20
2018,08,08,13,41,26.20
2018,08,08,13,42,26.10
2018,08,08,13,43,26.10
2018,08,08,13,44,26.10
2018,08,08,13,45,26.10
2018,08,08,13,46,26.10
2018,08,08,13,47,26.10
2018,08,08,13,48,26.20
2018,08,08,13,49,26.20
2018,08,08,13,50,26.30
2018,08,08,13,51,26.30
2018,08,08,13,52,26.30
2018,08,08,13,53,26.40
2018,08,08,13,54,26.40
2018,08,08,13,55,26.40
2018,08,08,13,56,26.50
2018,08,08,13,57,26.50
2018,08,08,13,58,26.60
2018,08,08,13,59,26.60
2018,08,08,14,00,26.70
2018,08,08,14,01,26.70
2018,08,08,14,02,26.80
2018,08,08,14,03,26.80
2018,08,08,14,04,26.90
2018,08,08,14,05,26.80
2018,08,08,14,06,26.80
2018,08,08,14,07,26.80
2018,08,08,14,08,26.70
2018,08,08,14,09,26.70
2018,08,08,14,10,26.70
2018,08,08,14,11,26.80
2018,08,08,14,12,26.80
2018,08,08,14,13,26.80
2018,08,08,14,14,26.80
2018,08,08,14,15,26.90
2018,08,08,14,16,26.90
2018,08,08,14,17,26.90
2018,08,08,14,18,27.00
2018,08,08,14,19,27.10
2018,08,08,14,20,27.20
2018,08,08,14,21,27.30
2018,08,08,14,22,27.30
2018,08,08,14,23,27.20
2018,08,08,14,24,27.20
2018,08,08,14,25,27.20
2018,08,08,14,26,27.10
2018,08,08,14,27,27.10
2018,08,08,14,28,27.10
2018,08,08,14,29,27.10
2018,08,08,14,30,27.10
2018,08,08,14,31,27.10
2018,08,08,14,32,27.10
2018,08,08,14,33,27.10
2018,08,08,14,34,27.10
2018,08,08,14,35,27.10
2018,08,08,14,36,27.10
2018,08,08,14,37,27.10
2018,08,08,14,38,27.20
2018,08,08,14,39,27.20
2018,08,08,14,40,27.30
2018,08,08,14,41,27.30
2018,08,08,14,42,27.30
2018,08,08,14,43,27.40
2018,08,08,14,44,27.40
2018,08,08,14,45,27.40
2018,08,08,14,46,27.30
2018,08,08,14,47,27.30
2018,08,08,14,48,27.30
2018,08,08,14,49,27.40
2018,08,08,14,50,27.40
2018,08,08,14,51,27.30
2018,08,08,14,52,27.30
2018,08,08,14,53,27.30
2018,08,08,14,54,27.30
2018,08,08,14,55,27.30
2018,08,08,14,56,27.30
2018,08,08,14,57,27.30
2018,08,08,14,58,27.30
2018,08,08,14,59,27.30
2018,08,08,15,00,27.30
2018,08,08,15,01,27.20
2018,08,08,15,02,27.10
2018,08,08,15,03,27.00
2018,08,08,15,04,27.00
2018,08,08,15,05,27.10
2018,08,08,15,06,27.00
2018,08,08,15,07,27.00
2018,08,08,15,08,27.10
2018,08,08,15,09,27.10
2018,08,08,15,10,27.10
2018,08,08,15,11,27.10
2018,08,08,15,12,27.10
2018,08,08,15,13,27.20
2018,08,08,15,14,27.30
2018,08,08,15,15,27.40
2018,08,08,15,16,27.40
2018,08,08,15,17,27.50
2018,08,08,15,18,27.50
2018,08,08,15,19,27.50
2018,08,08,15,20,27.50
2018,08,08,15,21,27.50
2018,08,08,15,22,27.50
2018,08,08,15,23,27.50
2018,08,08,15,24,27.50
2018,08,08,15,25,27.50
2018,08,08,15,26,27.50
2018,08,08,15,27,27.50
2018,08,08,15,28,27.50
2018,08,08,15,29,27.60
2018,08,08,15,30,27.60
2018,08,08,15,31,27.50
2018,08,08,15,32,27.50
2018,08,08,15,33,27.50
2018,08,08,15,34,27.50
2018,08,08,15,35,27.50
2018,08,08,15,36,27.60
2018,08,08,15,37,27.60
2018,08,08,15,38,27.60
2018,08,08,15,39,27.60
2018,08,08,15,40,27.50
2018,08,08,15,41,27.50
2018,08,08,15,42,27.50
2018,08,08,15,43,27.50
2018,08,08,15,44,27.50
2018,08,08,15,45,27.50
2018,08,08,15,46,27.50
2018,08,08,15,47,27.50
2018,08,08,15,48,27.60
2018,08,08,15,49,27.60
2018,08,08,15,50,27.70
2018,08,08,15,51,27.80
2018,08,08,15,52,27.90
2018,08,08,15,53,27.90
2018,08,08,15,54,28.00
2018,08,08,15,55,28.00
2018,08,08,15,56,28.00
2018,08,08,15,57,28.00
2018,08,08,15,58,27.90
2018,08,08,15,59,27.90
2018,08,08,16,00,27.90
2018,08,08,16,01,27.90
2018,08,08,16,02,27.80
2018,08,08,16,03,27.80
2018,08,08,16,04,27.80
2018,08,08,16,05,27.70
2018,08,08,16,06,27.80
2018,08,08,16,07,27.80
2018,08,08,16,08,27.80
2018,08,08,16,09,27.90
2018,08,08,16,10,27.90
2018,08,08,16,11,28.00
2018,08,08,16,12,28.00
2018,08,08,16,13,28.10
2018,08,08,16,14,28.10
2018,08,08,16,15,28.10
2018,08,08,16,16,28.10
2018,08,08,16,17,28.10
2018,08,08,16,18,28.10
2018,08,08,16,19,28.10
2018,08,08,16,20,28.10
2018,08,08,16,21,28.20
2018,08,08,16,22,28.20
2018,08,08,16,23,28.20
2018,08,08,16,24,28.20
2018,08,08,16,25,28.20
2018,08,08,16,26,28.20
2018,08,08,16,27,28.30
2018,08,08,16,28,28.30
2018,08,08,16,29,28.30
2018,08,08,16,30,28.30
2018,08,08,16,31,28.30
2018,08,08,16,32,28.30
2018,08,08,16,33,28.30
2018,08,08,16,34,28.20
2018,08,08,16,35,28.30
2018,08,08,16,36,28.30
2018,08,08,16,37,28.30
2018,08,08,16,38,28.30
2018,08,08,16,39,28.40
2018,08,08,16,40,28.40
2018,08,08,16,41,28.40
2018,08,08,16,42,28.40
2018,08,08,16,43,28.40
2018,08,08,16,44,28.30
2018,08,08,16,45,28.30
2018,08,08,16,46,28.30
2018,08,08,16,47,28.30
2018,08,08,16,48,28.30
2018,08,08,16,49,28.30
2018,08,08,16,50,28.30
2018,08,08,16,51,28.40
2018,08,08,16,52,28.40
2018,08,08,16,53,28.40
2018,08,08,16,54,28.40
2018,08,08,16,55,28.50
2018,08,08,16,56,28.50
2018,08,08,16,57,28.50
2018,08,08,16,58,28.60
2018,08,08,16,59,28.60
2018,08,08,17,00,28.70
2018,08,08,17,01,28.70
2018,08,08,17,02,28.80
2018,08,08,17,03,28.90
2018,08,08,17,04,29.00
2018,08,08,17,05,29.10
2018,08,08,17,06,29.20
2018,08,08,17,07,29.30
2018,08,08,17,08,29.30
2018,08,08,17,09,29.30
2018,08,08,17,10,29.30
2018,08,08,17,11,29.30
2018,08,08,17,12,29.20
2018,08,08,17,13,29.20
2018,08,08,17,14,29.10
2018,08,08,17,15,29.00
2018,08,08,17,16,29.00
2018,08,08,17,17,29.00
2018,08,08,17,18,29.10
2018,08,08,17,19,29.10